#timestamp,LO_Frequency,Hit,StdDev 
1558206015.3,286047002.3,N
1558206035.1,286047002.2,N
1558206055.9,286047004.3,Y
1558206075.7,286046998.9,P
1558206095.5,286046998.9,N
1558206115.4,286046998.4,N
1558206135.2,286046998.7,N
1558206155.0,286046998.9,N
1558206155.9,286046998.9,N
1558206175.8,286046999.4,N
1558206195.6,286046997.3,N
1558206215.5,286046997.2,N
1558206235.3,286046996.5,Y
1558206255.1,286046999.5,P
1558206275.9,286046996.9,P
1558206295.7,286046997.2,N
1558206315.6,286046997.9,N
1558206335.4,286046994.9,Y
1558206355.2,286046998.1,P
1558206375.1,286046999.7,P
1558206376.0,286046999.7,N
1558206395.8,286047000.0,N
1558206415.6,286047001.1,N
1558206435.5,286047002.1,N
1558206455.3,286046999.8,N
1558206475.2,286047000.3,N
1558206495.9,286047000.4,N
1558206515.7,286047001.8,N
1558206535.6,286047004.2,Y
1558206555.4,286047004.0,P
1558206575.2,286047001.9,N
1558206595.1,286047002.3,N
1558206596.0,286047002.3,N
1558206615.8,286047001.8,N
1558206635.7,286047004.0,Y
1558206655.5,286046998.3,P
1558206675.3,286046998.4,N
1558206695.2,286047000.7,N
1558206715.0,286047000.0,N
1558206715.9,286047000.0,N
1558206735.8,286047001.5,N
1558206755.6,286047000.2,N
1558206775.4,286046998.2,N
1558206795.3,286047001.2,N
1558206815.1,286046999.3,N
1558206835.8,286046999.3,N
1558206855.4,286046998.1,N
1558206875.3,286046998.8,N
1558206895.1,286046999.5,N
1558206896.0,286046999.5,N
1558206915.8,286047000.3,N
1558206935.7,286047000.1,N
1558206955.5,286047000.0,N
1558206975.3,286047002.7,N
1558206995.2,286046999.7,N
1558207015.0,286047002.7,N
1558207015.9,286047002.7,N
1558207035.8,286047003.6,N
1558207055.6,286047003.1,N
1558207075.4,286047003.4,N
1558207095.3,286047005.6,Y
1558207115.1,286047004.2,P
1558207135.9,286047001.0,N
1558207155.7,286047000.5,N
1558207175.5,286047000.0,N
1558207195.4,286047002.8,N
1558207215.2,286047000.3,N
1558207235.0,286047001.6,N
1558207235.9,286047001.6,N
1558207255.8,286047002.0,N
1558207275.6,286047000.7,N
1558207295.4,286046998.2,N
1558207315.3,286046998.8,N
1558207335.1,286046996.7,N
1558207355.9,286046997.0,N
1558207375.7,286046999.5,N
1558207395.5,286046996.5,N
1558207415.4,286046998.3,N
1558207435.2,286047000.4,N
1558207455.0,286047001.0,N
1558207456.0,286047001.0,N
1558207475.8,286046998.6,N
1558207495.6,286046996.8,N
1558207545.5,286047000.4,E
1558207555.4,286047000.7,N
1558207575.3,286047000.9,P
1558207595.1,286047000.7,P
1558207596.0,286047000.7,Y
1558207615.8,286046999.5,P
1558207635.7,286046998.9,N
1558207655.5,286046996.6,P
1558207675.3,286046998.2,N
1558207695.2,286046998.3,N
1558207715.0,286046998.4,N
1558207715.9,286046998.4,N
1558207735.8,286046999.1,N
1558207755.6,286046998.3,N
1558207775.4,286046999.0,N
1558207795.3,286046999.2,N
1558207815.1,286046999.0,N
1558207835.8,286047001.0,N
1558207855.7,286046998.2,N
1558207875.5,286047002.7,N
1558207895.4,286047001.1,N
1558207915.2,286047002.3,N
1558207935.0,286047002.4,N
1558207935.9,286047002.4,N
1558207955.8,286047000.6,N
1558207975.6,286047002.4,N
1558207995.4,286047004.3,N
1558208015.4,286047004.2,N
1558208035.2,286047002.0,N
1558208055.0,286047001.4,N
1558208055.9,286047001.4,N
1558208075.8,286047001.5,N
1558208095.6,286046999.7,N
1558208115.5,286046998.6,N
1558208135.3,286047000.3,N
1558208155.1,286047000.5,N
1558208175.9,286047002.4,N
1558208195.7,286047003.0,N
1558208215.5,286047007.1,Y
1558208235.4,286047001.9,P
1558208255.2,286047002.1,P
1558208275.1,286047002.5,P
1558208276.0,286047002.5,Y
1558208295.8,286046998.7,P
1558208315.6,286046997.3,N
1558208335.5,286046997.6,N
1558208355.3,286046996.9,N
1558208375.1,286047000.9,N
1558208395.9,286047000.8,N
1558208415.7,286046998.7,N
1558208435.6,286047001.1,N
1558208455.4,286046998.5,N
1558208475.2,286046998.6,N
1558208495.1,286046996.5,N
1558208496.0,286046996.5,N
1558208515.8,286046998.3,N
1558208535.6,286046997.9,N
1558208555.5,286046997.6,N
1558208575.3,286046997.2,N
1558208595.2,286046997.1,N
1558208615.9,286046997.5,N
1558208635.7,286046997.2,N
1558208655.6,286046996.7,N
1558208675.4,286047000.9,N
1558208695.2,286046998.1,N
1558208715.1,286047002.3,N
1558208716.0,286047002.3,N
1558208735.8,286047001.4,N
1558208755.7,286046999.9,N
1558208775.5,286047002.1,N
1558208795.3,286047000.0,N
1558208815.2,286046999.6,N
1558208835.0,286046998.4,N
1558208835.9,286046998.4,N
1558208855.7,286046999.3,N
1558208875.6,286046999.5,N
1558208895.4,286046999.3,N
1558208915.3,286047000.5,N
1558208935.1,286046998.3,N
1558208955.8,286047000.7,N
1558208975.7,286047000.5,N
1558208995.5,286047000.4,N
1558209015.3,286047000.2,N
1558209035.2,286047000.5,N
1558209055.0,286047001.9,N
1558209055.9,286047001.9,N
1558209075.8,286047000.7,N
1558209095.6,286046997.2,N
1558209115.4,286046999.5,N
1558209135.3,286046999.2,N
1558209155.1,286046997.9,N
1558209175.8,286046997.4,N
1558209195.7,286046997.2,N
1558209215.5,286047001.1,N
1558209235.4,286046999.6,N
1558209255.6,286046996.7,N
1558209275.4,286046998.4,N
1558209295.3,286046997.0,N
1558209315.1,286046996.8,N
1558209316.0,286046996.8,N
1558209335.8,286046999.3,N
1558209355.7,286047002.5,N
1558209375.5,286046998.7,N
1558209395.3,286046999.5,N
1558209415.2,286046994.9,Y
1558209435.0,286046995.1,P
1558209435.9,286046995.1,N
1558209455.8,286046996.2,N
1558209475.6,286046995.8,N
1558209495.4,286046997.0,N
1558209515.3,286046997.8,N
1558209535.1,286046997.1,N
1558209555.9,286046998.0,N
1558209575.7,286046997.1,N
1558209595.5,286046998.5,N
